FW0019 Weather Reports


Display with metric or nautical units.
time (UTC)temp
F
wind
direction
speed
MPH
gust
MPH
rain 1hr
in
rain 24hr
in
rain mn
in
humidity
%
barometer
mb
20260508191552 74 130 10.0 22.0 0.00 0.00 0.00 28 880.2
20260508190045 74 132 8.0 21.0 0.00 0.00 0.00 29 880.3
20260508184550 74 106 10.0 18.0 0.00 0.00 0.00 27 880.3
20260508183045 75 126 9.0 15.0 0.00 0.00 0.00 27 880.3
20260508181542 74 162 10.0 16.0 0.00 0.00 0.00 30 880.4
20260508180040 74 137 9.0 16.0 0.00 0.00 0.00 28 880.3
20260508174547 73 115 12.0 17.0 0.00 0.00 0.00 26 880.3
20260508173037 73 86 9.0 18.0 0.00 0.00 0.00 32 880.2
20260508171537 73 121 11.0 23.0 0.00 0.00 0.00 29 880.1
20260508170039 73 119 9.0 17.0 0.00 0.00 0.00 31 880.1
20260508164534 72 134 10.0 17.0 0.00 0.00 0.00 32 880.1
20260508163032 72 109 8.0 16.0 0.00 0.00 0.00 32 880.0
20260508161529 71 101 10.0 19.0 0.00 0.00 0.00 32 880.1
20260508160028 71 137 9.0 15.0 0.00 0.00 0.00 33 880.0
20260508154536 70 128 8.0 15.0 0.00 0.00 0.00 33 879.9
20260508153024 69 98 8.0 12.0 0.00 0.00 0.00 33 880.0
20260508151529 68 137 6.0 13.0 0.00 0.00 0.00 36 880.0
20260508150024 67 114 6.0 9.0 0.00 0.00 0.00 37 879.9
20260508144514 66 157 5.0 10.0 0.00 0.00 0.00 39 879.8
20260508143011 65 116 4.0 8.0 0.00 0.00 0.00 40 879.6
20260508141516 64 110 3.0 7.0 0.00 0.00 0.00 40 879.6
20260508140009 63 107 2.0 6.0 0.00 0.00 0.00 42 879.7
20260508134600 62 163 1.0 7.0 0.00 0.00 0.00 46 879.4
20260508133103 60 121 4.0 6.0 0.00 0.00 0.00 44 879.4
20260508131559 60 109 5.0 8.0 0.00 0.00 0.00 44 879.3
20260508130111 58 80 3.0 7.0 0.00 0.00 0.00 46 879.2
20260508124557 57 138 3.0 6.0 0.00 0.00 0.00 50 879.0
20260508123101 55 105 3.0 5.0 0.00 0.00 0.00 56 879.0
20260508121629 54 114 2.0 5.0 0.00 0.00 0.00 58 879.0
20260508120056 54 121 2.0 3.0 0.00 0.00 0.00 61 879.0
20260508114556 55 129 1.0 4.0 0.00 0.00 0.00 61 879.0
20260508113054 55 121 1.0 4.0 0.00 0.00 0.00 63 878.9
20260508111552 56 124 1.0 4.0 0.00 0.00 0.00 62 878.9
20260508110047 57 136 2.0 4.0 0.00 0.00 0.00 59 879.0
20260508104552 57 123 2.0 4.0 0.00 0.00 0.00 59 879.0
20260508103045 59 115 2.0 7.0 0.00 0.00 0.00 58 879.1
20260508101545 59 115 4.0 7.0 0.00 0.00 0.00 55 879.2
20260508100038 59 137 3.0 6.0 0.00 0.00 0.00 53 879.2
20260508094544 59 113 4.0 8.0 0.00 0.00 0.00 47 879.2
20260508093034 60 117 3.0 7.0 0.00 0.00 0.00 45 879.3
20260508091546 60 141 4.0 7.0 0.00 0.00 0.00 43 879.4
20260508090042 61 123 4.0 11.0 0.00 0.00 0.00 40 879.5
20260508084528 60 103 4.0 8.0 0.00 0.00 0.00 42 879.5
20260508083026 61 144 4.0 11.0 0.00 0.00 0.00 42 879.8
20260508081532 61 131 6.0 9.0 0.00 0.00 0.00 42 879.8
20260508080026 61 150 4.0 9.0 0.00 0.00 0.00 44 879.9
20260508074519 60 146 4.0 11.0 0.00 0.00 0.00 45 880.0
20260508073017 60 134 4.0 7.0 0.00 0.00 0.00 46 880.2
20260508071522 61 136 4.0 7.0 0.00 0.00 0.00 46 880.1
20260508070014 60 136 6.0 9.0 0.00 0.00 0.00 48 880.2
20260508064519 60 140 3.0 7.0 0.00 0.00 0.00 52 880.2
20260508063014 59 110 4.0 8.0 0.00 0.00 0.00 54 880.3
20260508061517 59 149 3.0 7.0 0.00 0.00 0.00 56 880.3
20260508060020 59 157 3.0 7.0 0.00 0.00 0.00 57 880.3
20260508054512 59 143 3.0 5.0 0.00 0.00 0.00 56 880.3
20260508053011 60 114 3.0 7.0 0.00 0.00 0.00 54 880.4
20260508051510 59 136 3.0 9.0 0.00 0.00 0.00 52 880.4
20260508050010 59 138 3.0 6.0 0.00 0.00 0.00 49 880.4
20260508044510 59 147 3.0 6.0 0.00 0.00 0.00 47 880.4
20260508043014 60 134 3.0 7.0 0.00 0.00 0.00 46 880.3
20260508041509 60 159 4.0 10.0 0.00 0.00 0.00 48 880.1
20260508040008 60 114 6.0 9.0 0.00 0.00 0.00 48 880.0
20260508034508 60 101 5.0 8.0 0.00 0.00 0.00 49 879.9
20260508033008 60 109 6.0 10.0 0.00 0.00 0.00 49 879.8
20260508031506 60 134 4.0 8.0 0.00 0.00 0.00 53 879.6
20260508030007 61 123 4.0 9.0 0.00 0.00 0.00 54 879.5
20260508024507 62 113 6.0 9.0 0.00 0.00 0.00 55 879.3
20260508023006 62 134 6.0 14.0 0.00 0.00 0.00 60 879.3
20260508021505 64 123 5.0 12.0 0.00 0.00 0.00 57 879.3
20260508020112 65 150 6.0 14.0 0.00 0.00 0.00 47 879.2
20260508014504 67 162 7.0 14.0 0.00 0.00 0.00 43 879.2
20260508013004 67 117 8.0 15.0 0.00 0.00 0.00 42 879.2
20260508011502 68 96 8.0 13.0 0.00 0.00 0.00 47 879.2
20260508010002 68 128 8.0 15.0 0.00 0.00 0.00 46 879.2
20260508004501 69 149 8.0 14.0 0.00 0.00 0.00 50 879.1
20260508003001 69 119 8.0 15.0 0.00 0.00 0.00 47 879.1
20260508001605 70 115 9.0 14.0 0.00 0.00 0.00 53 879.1
20260508000105 70 107 8.0 16.0 0.00 0.00 0.00 52 879.1
20260507234559 70 128 10.0 15.0 0.00 0.00 0.00 50 879.0
20260507233058 70 140 8.0 16.0 0.00 0.00 0.00 53 879.0
20260507231558 71 96 7.0 15.0 0.00 0.00 0.00 52 879.0
20260507230057 71 153 11.0 16.0 0.00 0.00 0.00 49 879.1
20260507224555 71 102 8.0 17.0 0.00 0.00 0.00 49 879.1
20260507223055 71 114 8.0 16.0 0.00 0.00 0.00 49 879.2
20260507221554 71 150 9.0 16.0 0.00 0.00 0.00 49 879.2
20260507220052 71 117 11.0 18.0 0.00 0.00 0.00 48 879.4
20260507214555 71 126 9.0 15.0 0.00 0.00 0.00 46 879.7
20260507213056 71 116 10.0 16.0 0.00 0.00 0.00 49 879.7
20260507211553 72 161 9.0 14.0 0.00 0.00 0.00 49 879.7
20260507210048 72 170 8.0 15.0 0.00 0.00 0.00 50 879.9
20260507204548 72 92 11.0 16.0 0.00 0.00 0.00 44 880.0
20260507203048 72 104 9.0 16.0 0.00 0.00 0.00 45 880.0
20260507201550 72 165 9.0 13.0 0.00 0.00 0.00 49 880.0
20260507200047 72 98 4.0 13.0 0.00 0.00 0.00 49 880.0
20260507194547 74 168 8.0 13.0 0.00 0.00 0.00 45 880.2